Skip Page Navigation
NASA JPL Caltech
NASA Logo - Jet Propulsion Laboratory + View the NASA Portal
+ Center for Near-Earth Object Studies
JPL Home Earth Solar System Stars & Galaxies Technology
JPL Solar System Dynamics
BODIES ORBITS EPHEMERIDES TOOLS PHYSICAL DATA DISCOVERY FAQ SITE MAP
IMPORTANT: The SSD Announcement email list is now available. Major changes are coming in the near future, including possible hostname and/or URL changes. To be notified of such changes, subscribe to this email list.

Please visit this page for more details.


JPL Small-Body Database Browser
Search: [ help ]  
136513 (2005 NL93)
Classification: Main-belt Asteroid          SPK-ID: 2136513
Ephemeris | Orbit Diagram | Orbital Elements | Mission Design | Physical Parameters | Discovery Circumstances | Close-Approach Data ]

[ show orbit diagram ]
Orbital Elements at Epoch 2458600.5 (2019-Apr-27.0) TDB
Reference: JPL 18 (heliocentric ecliptic J2000)
 Element Value Uncertainty (1-sigma)   Units 
e .1735969883706017 5.2826e-08  
a 3.081235327430411 4.4105e-08 au
q 2.546342154127387 1.7632e-07 au
i 12.55425858161217 5.3718e-06 deg
node 277.0115260351641 3.2692e-05 deg
peri 323.0007164424525 4.1737e-05 deg
M 211.4782519294916 3.2688e-05 deg
tp 2459415.529411342642
(2021-Jul-20.02941134)
0.00019205 TDB
period 1975.539554948268
5.41
4.2417e-05
1.161e-07
d
yr
n .182228697521284 3.9127e-09 deg/d
Q 3.616128500733435 5.1762e-08 au
  Orbit Determination Parameters
   # obs. used (total)      379  
   data-arc span      8498 days (23.27 yr)  
   first obs. used      1995-10-02  
   last obs. used      2019-01-07  
   planetary ephem.      DE431  
   SB-pert. ephem.      SB431-N16  
   condition code      0  
   norm. resid. RMS      .60522  
   source      ORB  
   producer      Otto Matic  
   solution date      2019-Jul-14 04:05:41  

Additional Information
 Earth MOID = 1.54534 au 
 Jupiter MOID = 1.53177 au 
 T_jup = 3.168 
[ show covariance matrix ]

Ephemeris | Orbit Diagram | Orbital Elements | Mission Design | Physical Parameters | Discovery Circumstances | Close-Approach Data ]

Physical Parameter Table
Parameter Symbol Value Units Sigma Reference Notes
absolute magnitude H 14.5   n/a MPO436672  
diameter diameter 4.969 km 0.111 urn:nasa:pds:neowise_diameters_albedos::2.0[mainbelt] (http://adsabs.harvard.edu/abs/2011ApJ...741...68M)  
geometric albedo albedo 0.124   0.010 urn:nasa:pds:neowise_diameters_albedos::2.0[mainbelt] (http://adsabs.harvard.edu/abs/2011ApJ...741...68M)  

136513 (2005 NL93)          Discovered 2005-Jul-05 by Siding Spring Survey at Siding Spring
Reference: 20060907/Numbers.arcLast Updated: 2006-09-10

[ show close-approach data ]
Alternate Designations
 2005 NL93 = 2004 BS76 
Ephemeris | Orbit Diagram | Orbital Elements | Mission Design | Physical Parameters | Discovery Circumstances | Close-Approach Data ]
ABOUT SSD CREDITS/AWARDS PRIVACY/COPYRIGHT GLOSSARY LINKS
FirstGov
(server date/time)  
NASA Home Page
Site Manager:   Ryan S. Park
Webmaster  Alan B. Chamberlin